Home > Weather > Pully > Past weeks

Flag for Switzerland Past Weather in Pully, Vaud, Switzerland — Yesterday and Last 2 Weeks

Now
80 °F

Warm.


Feels Like: 82 °F
Forecast: 62 / 79 °F
Wind: 12 mph from North

Location: Aigle

Current Time: Jul 25, 2016 at 4:05:42 PM

Latest Report: Jul 25, 2016 at 3:00 PM


Visibility: N/A

Pressure: 30.01 "Hg

Humidity: 60%

Dew Point: 65 °F

Location of PullyLocation

Past Weather in Pully — Graph

°F

Pully Temperature Yesterday

Maximum temperature yesterday: 79 °F (at 4:00 PM)
Minimum temperature yesterday: 62 °F (at 7:00 AM)
Average temperature yesterday: 70 °F

High & Low Weather Summary for the Past Weeks

 TemperatureHumidityPressure
High88 °F (Jul 20, 5:00 PM)97% (Jul 22, 7:00 AM)30.31 "Hg (Jul 22, 7:00 AM)
Low46 °F (Jul 15, 6:00 AM)38% (Jul 16, 5:00 PM)29.86 "Hg (Jul 10, 6:00 PM)
Average67 °F76%30.07 "Hg
* Reported Jul 10 2:00 PM — Jul 25 2:00 PM, Pully, Weather by CustomWeather, © 2016

Note: Actual official high and low records may vary slightly from our data, if they occured in-between our weather recording intervals... More about our weather records

Advertising

Pully Weather History for the Previous 24 Hours

Scroll right to see more
 ConditionsComfort  
Time TempWeatherWind HumidityBarometerVisibility
2:00 PM
Mon, Jul 25
79 °FWarm.9 mph61%30.03 "HgN/A
1:00 PM78 °FWarm.6 mph66%30.05 "HgN/A
12:00 PM76 °FMild.7 mph68%30.06 "HgN/A
11:00 AM74 °FPartly sunny.5 mph69%30.07 "Hg16 mi
10:00 AM72 °FMild.2 mph71%30.09 "HgN/A
9:00 AM69 °FMild.2 mph79%30.10 "HgN/A
8:00 AM66 °FPartly sunny.2 mph89%30.10 "Hg15 mi
7:00 AM62 °FCool.1 mph96%30.11 "HgN/A
6:00 AM61 °FCool.2 mph95%30.11 "HgN/A
5:00 AM62 °FPassing clouds.2 mph95%30.11 "Hg19 mi
4:00 AM63 °FMild.5 mph93%30.11 "HgN/A
3:00 AM64 °FMild.1 mph91%30.11 "HgN/A
2:00 AM64 °FMild.3 mph90%30.11 "HgN/A
1:00 AM64 °FMild.2 mph96%30.11 "HgN/A
12:00 AM65 °FMild.1 mph95%30.11 "HgN/A
11:00 PM
Sun, Jul 24
67 °FMild.2 mph86%30.10 "HgN/A
10:00 PM69 °FMild.2 mph87%30.09 "HgN/A
9:00 PM69 °FMild.3 mph90%30.06 "HgN/A
8:00 PM72 °FOvercast.1 mph78%30.04 "Hg11 mi
7:00 PM73 °FMild.12 mph78%30.02 "HgN/A
6:00 PM78 °FWarm.8 mph65%30.00 "HgN/A
5:00 PM76 °FScattered clouds.10 mph66%30.01 "Hg11 mi
4:00 PM79 °FWarm.12 mph61%30.00 "HgN/A
Weather by CustomWeather, © 2016

See weather overviewHow to use our weather pages